[[{"header":{"parameterUnit":"m.s-1","parameterCategory":1,"la1":30.2991,"la2":30.254,"lo1":-89.0895,"lo2":-89.0444,"dy":0.0017,"dx":0.0017,"nx":28,"ny":28,"refTime":"2023-03-19T21:00:00:Z","depth":0,"parameterNumber":2,"parameterNumberName":"U-component_of_WINDS"},"data":[0,0,0,0,0,0,0,0,0,0,0,0,0,0,0,0,0,0,0,0,0,0,0,0,0,0,0,0,0,0,0,0,0,0,0,0,0,0,0,0,0,0,0,0,0,0,0,0,0,0,0,0,0,0,0,0,0,0,1.5847,1.5847,0,1.5876,1.5876,1.5877,1.5893,1.5893,1.5893,1.5894,1.5923,1.5924,1.5924,0,0,0,0,0,0,0,0,0,0,0,0,0,1.5805,1.5806,1.5847,1.5847,1.5847,1.5876,1.5876,1.5877,1.5893,1.5893,1.5893,1.5894,1.5923,1.5923,1.5924,0,0,0,0,0,0,0,0,0,0,0,0,0,1.5828,1.5806,1.5847,1.5859,1.5861,1.5876,1.5876,1.5877,1.5893,1.5893,1.5893,1.5894,1.5922,1.5923,1.5924,1.5929,0,0,1.5928,1.5928,0,0,0,0,0,0,0,0,1.5826,1.5829,1.5857,1.5858,1.586,1.5881,1.5872,1.5894,1.5893,1.5881,1.5894,1.5894,1.5909,1.5911,1.5916,1.5931,1.5932,1.5928,1.5929,1.5929,1.5929,0,0,0,0,0,0,0,1.5825,1.5828,1.5858,1.5857,1.5859,1.5863,1.5867,1.5877,1.5894,1.5882,1.5883,1.5886,1.591,1.5915,1.5917,1.5932,1.5928,1.5929,1.5929,1.593,1.5953,1.5953,0,0,0,0,0,0,1.5821,1.5827,1.5857,1.5859,1.5843,1.5864,1.5868,1.5874,1.5894,1.5897,1.5886,1.5887,1.5913,1.5916,1.5918,1.5926,1.5929,1.593,1.5931,1.5953,1.5953,1.5953,0,0,0,0,0,0,1.582,1.5824,1.5856,1.5843,1.5848,1.5865,1.5872,1.5875,1.588,1.5897,1.59,1.5889,1.5913,1.5917,1.5927,1.5927,1.593,1.5931,1.5953,1.5953,1.5953,1.594,0,0,0,0,0,0,1.5819,1.5823,1.5825,1.5843,1.5848,1.5864,1.5872,1.5875,1.5882,1.5883,1.59,1.5903,1.5914,1.5925,1.5928,1.5928,1.5932,1.5953,1.5953,1.5953,1.5941,1.594,1.5939,0,0,0,0,0,1.5818,1.582,1.5825,1.5829,1.5851,1.5864,1.5867,1.5879,1.5882,1.5884,1.5895,1.5903,1.5926,1.5926,1.5929,1.593,1.5953,1.5953,1.5953,1.5941,1.594,1.5939,0,0,0,0,0,0,1.5802,1.5823,1.5829,1.5837,1.5849,1.5867,1.587,1.5877,1.5888,1.5889,1.5903,1.5907,1.5916,1.5924,1.5923,1.5936,1.5941,1.5941,1.593,1.5929,1.5929,1.5926,1.5933,0,0,0,0,0,1.5799,1.5808,1.5826,1.5832,1.5837,1.5852,1.5859,1.5867,1.5879,1.5884,1.5896,1.5908,1.5918,1.5924,1.5934,1.5942,1.5946,1.5944,1.5943,1.5943,1.5943,1.5948,1.5948,1.5953,1.5953,1.5953,0,0,1.5794,1.5807,1.5811,1.5829,1.5839,1.5848,1.5856,1.5865,1.5872,1.5886,1.5896,1.5905,1.5919,1.5928,1.5932,1.5935,1.5943,1.5943,1.5942,1.5942,1.5948,1.5948,1.5947,1.5953,1.5953,1.5953,0,0,1.5789,1.58,1.5806,1.5816,1.5831,1.5841,1.5842,1.586,1.5866,1.5877,1.5888,1.5896,1.5913,1.5923,1.593,1.593,1.5937,1.5933,1.5928,1.5933,1.5932,1.5932,1.5932,1.5932,1.5933,1.5933,1.5933,0,1.5781,1.5794,1.5808,1.5816,1.5824,1.5837,1.5844,1.5853,1.587,1.5875,1.5878,1.59,1.5911,1.5922,1.5923,1.5928,1.593,1.5931,1.5931,1.5931,1.5931,1.5932,1.5932,1.5932,1.5932,1.5932,1.5932,0,1.5783,1.5793,1.5796,1.5813,1.5821,1.5828,1.5843,1.585,1.5858,1.5868,1.5879,1.5892,1.5906,1.5909,1.5917,1.5922,1.5923,1.5929,1.5933,1.593,1.5931,1.5931,1.5931,1.5932,1.5932,1.5932,0,0,1.5769,1.5794,1.5795,1.5803,1.5821,1.5828,1.5837,1.585,1.5856,1.5867,1.5875,1.589,1.5895,1.5903,1.5912,1.5917,1.5916,1.5921,1.5922,1.592,1.5923,1.5919,1.5919,1.5921,1.5921,1.5922,1.5922,0,1.5766,1.5782,1.5794,1.5805,1.5814,1.5828,1.5835,1.5847,1.5857,1.5866,1.5877,1.5887,1.5893,1.5898,1.5903,1.5915,1.5917,1.5915,1.5929,1.5929,1.5924,1.5919,1.5915,1.5915,1.5923,1.5923,1.5923,0,1.5765,1.5777,1.5789,1.5807,1.5811,1.5817,1.5831,1.584,1.5854,1.5861,1.587,1.588,1.589,1.5894,1.5908,1.5906,1.5913,1.5919,1.592,1.5921,1.5925,1.5921,1.5915,1.5915,1.5923,1.5923,1.5923,0,1.5753,1.5772,1.5782,1.5788,1.5809,1.5813,1.5822,1.5837,1.5844,1.5856,1.5862,1.5875,1.5882,1.5892,1.5905,1.5907,1.5917,1.5923,1.5924,1.5923,1.5925,1.5925,1.592,1.5929,1.5929,1.5929,1.5929,0,1.5749,1.5756,1.5777,1.5783,1.5791,1.5806,1.5813,1.5823,1.5836,1.5844,1.5857,1.5864,1.5881,1.5891,1.5902,1.5912,1.5915,1.5921,1.5924,1.592,1.5919,1.5924,1.5924,1.5929,1.5929,1.5929,1.5929,0,1.5737,1.5751,1.5762,1.5782,1.5787,1.5792,1.5808,1.5815,1.5826,1.5836,1.5839,1.5857,1.5869,1.5883,1.59,1.5907,1.5916,1.592,1.5912,1.5913,1.5913,1.5913,1.5912,1.5912,1.5921,1.5921,1.5921,0,1.5733,1.5739,1.5759,1.5765,1.5774,1.5784,1.5792,1.5807,1.5815,1.5832,1.5837,1.585,1.5861,1.588,1.5894,1.5908,1.5912,1.5911,1.5914,1.591,1.5912,1.5912,1.5912,1.591,1.5909,1.5909,1.5909,0,1.5725,1.5732,1.5743,1.5757,1.5766,1.5777,1.5789,1.5794,1.5812,1.582,1.5833,1.5842,1.5859,1.5873,1.5888,1.5897,1.5906,1.5908,1.5909,1.5905,1.59,1.5903,1.5909,1.5908,1.5908,1.5908,1.5908,1.5908,1.5717,1.5723,1.5738,1.575,1.5761,1.5772,1.5779,1.5791,1.5802,1.5818,1.5826,1.5839,1.5854,1.5875,1.5885,1.5895,1.5898,1.5899,1.59,1.59,1.5899,1.5898,1.5898,1.5898,1.5898,1.5898,1.5898,0,1.5709,1.572,1.5731,1.5748,1.5757,1.5765,1.5779,1.5787,1.5798,1.5811,1.5822,1.5838,1.5851,1.5866,1.5881,1.5886,1.5891,1.5889,1.5889,1.5891,1.5895,1.5893,1.5885,1.5885,1.5885,1.5885,1.5885,1.5885,1.5707,1.5717,1.5726,1.5742,1.5753,1.5765,1.5772,1.5783,1.5794,1.581,1.5821,1.5831,1.5846,1.5862,1.5874,1.5879,1.5883,1.5881,1.5886,1.589,1.5891,1.5892,1.589,1.5882,1.5882,1.5881,1.5881,1.5881]},{"header":{"parameterUnit":"m.s-1","parameterCategory":1,"la1":30.2991,"la2":30.254,"lo1":-89.0895,"lo2":-89.0444,"dy":0.0017,"dx":0.0017,"nx":28,"ny":28,"refTime":"2023-03-19T21:00:00:Z","depth":0,"parameterNumber":3,"parameterNumberName":"V-component_of_WINDS"},"data":[0,0,0,0,0,0,0,0,0,0,0,0,0,0,0,0,0,0,0,0,0,0,0,0,0,0,0,0,0,0,0,0,0,0,0,0,0,0,0,0,0,0,0,0,0,0,0,0,0,0,0,0,0,0,0,0,0,0,-7.8448,-7.845,0,-7.8622,-7.8623,-7.8625,-7.8546,-7.8541,-7.8537,-7.8533,-7.8703,-7.8712,-7.872,0,0,0,0,0,0,0,0,0,0,0,0,0,-7.8041,-7.8049,-7.8448,-7.845,-7.8453,-7.8621,-7.8624,-7.8626,-7.8546,-7.8541,-7.8536,-7.8531,-7.8701,-7.8711,-7.8721,0,0,0,0,0,0,0,0,0,0,0,0,0,-7.8216,-7.8052,-7.8448,-7.8433,-7.8434,-7.8621,-7.8624,-7.8627,-7.8547,-7.8541,-7.8534,-7.8528,-7.8697,-7.871,-7.8722,-7.8932,0,0,-7.8762,-7.8767,0,0,0,0,0,0,0,0,-7.8206,-7.8231,-7.8433,-7.8435,-7.8435,-7.8555,-7.8542,-7.8729,-7.8549,-7.8504,-7.8533,-7.8525,-7.8659,-7.8675,-7.8721,-7.894,-7.8947,-7.8763,-7.8771,-7.8776,-7.878,0,0,0,0,0,0,0,-7.8194,-7.8223,-7.8516,-7.8436,-7.8438,-7.8416,-7.8433,-7.8577,-7.8616,-7.8508,-7.8502,-7.8524,-7.8658,-7.8709,-7.8725,-7.895,-7.8763,-7.8774,-7.8782,-7.8787,-7.9346,-7.9353,0,0,0,0,0,0,-7.8184,-7.8214,-7.8511,-7.8522,-7.8303,-7.8428,-7.8448,-7.8523,-7.8614,-7.8622,-7.8529,-7.852,-7.869,-7.871,-7.873,-7.898,-7.8776,-7.8788,-7.8796,-7.9339,-7.9348,-7.9355,0,0,0,0,0,0,-7.8175,-7.8211,-7.8504,-7.8367,-7.8402,-7.8442,-7.8527,-7.853,-7.8581,-7.8631,-7.8636,-7.8575,-7.8686,-7.8712,-7.8882,-7.8985,-7.8794,-7.8806,-7.9331,-7.9342,-7.9351,-7.9482,0,0,0,0,0,0,-7.8164,-7.8208,-7.829,-7.8369,-7.841,-7.8656,-7.8534,-7.8538,-7.8604,-7.8593,-7.8675,-7.8682,-7.8683,-7.8864,-7.8895,-7.8999,-7.8816,-7.9321,-7.9335,-7.9348,-7.9469,-7.9496,-7.9519,0,0,0,0,0,-7.815,-7.8319,-7.8295,-7.8331,-7.8513,-7.8662,-7.8685,-7.8685,-7.8613,-7.8694,-7.8726,-7.8679,-7.8969,-7.8882,-7.8916,-7.9026,-7.9315,-7.9332,-7.9347,-7.9457,-7.9491,-7.9519,0,0,0,0,0,0,-7.8249,-7.8329,-7.8303,-7.8504,-7.8577,-7.8648,-7.8751,-7.872,-7.8814,-7.8799,-7.8793,-7.8812,-7.8988,-7.9023,-7.8925,-7.9232,-7.913,-7.9154,-7.9202,-7.9234,-7.9259,-7.9246,-7.8826,0,0,0,0,0,-7.8295,-7.8411,-7.8474,-7.8644,-7.8683,-7.8711,-7.8776,-7.8769,-7.8844,-7.8874,-7.8918,-7.899,-7.9097,-7.9168,-7.9269,-7.9474,-7.9489,-7.9566,-7.9591,-7.9611,-7.9632,-7.9741,-7.9775,-7.9408,-7.9408,-7.9408,0,0,-7.8389,-7.8447,-7.8521,-7.8666,-7.8722,-7.884,-7.8737,-7.8867,-7.8954,-7.8892,-7.9056,-7.9091,-7.9171,-7.9359,-7.9444,-7.9395,-7.9737,-7.9632,-7.9648,-7.9657,-7.9761,-7.9795,-7.9826,-7.9419,-7.9417,-7.9415,0,0,-7.8622,-7.8679,-7.8827,-7.8885,-7.8972,-7.899,-7.9025,-7.9102,-7.9123,-7.9288,-7.9244,-7.9346,-7.9531,-7.9589,-7.9643,-7.9898,-7.9858,-7.993,-8.0062,-8.0168,-8.0197,-8.0223,-8.0312,-8.0344,-7.9951,-7.9951,-7.9951,0,-7.8729,-7.8908,-7.8906,-7.904,-7.9104,-7.9056,-7.9204,-7.926,-7.9374,-7.9419,-7.9362,-7.9593,-7.9643,-7.9843,-7.9905,-7.9951,-7.9989,-7.9921,-8.0194,-8.0219,-8.0243,-8.0328,-8.0362,-7.9959,-7.9958,-7.9957,-7.9957,0,-7.9033,-7.9158,-7.9266,-7.9381,-7.9456,-7.9597,-7.9614,-7.9691,-7.9677,-7.97,-7.9867,-7.9926,-8.0038,-8.0085,-8.0072,-8.0283,-8.0249,-8.0194,-8.0091,-8.0286,-8.0366,-8.0399,-7.9971,-7.9968,-7.9966,-7.9964,0,0,-7.9334,-7.9446,-7.9485,-7.9536,-7.9628,-7.9723,-7.9859,-7.9971,-8.0036,-8.0116,-8.0229,-8.0387,-8.0336,-8.0397,-8.039,-8.0484,-8.068,-8.0416,-8.0418,-8.0462,-8.0913,-8.0954,-8.0992,-8.0654,-8.066,-8.0665,-8.0906,0,-7.9573,-7.9816,-7.9818,-8.004,-8.0153,-8.0109,-8.0227,-8.0295,-8.032,-8.0418,-8.0443,-8.0555,-8.0479,-8.0516,-8.0607,-8.0637,-8.077,-8.0619,-8.0756,-8.0761,-8.0737,-8.1034,-8.1078,-8.1303,-8.0937,-8.0943,-8.0947,0,-7.9884,-7.9977,-8.0211,-8.0285,-8.0333,-8.044,-8.0542,-8.0637,-8.0712,-8.0723,-8.0791,-8.077,-8.0906,-8.0801,-8.0987,-8.0885,-8.094,-8.0964,-8.0972,-8.0984,-8.0865,-8.1053,-8.1375,-8.1408,-8.0996,-8.0992,-8.0988,0,-8.0079,-8.0262,-8.0425,-8.047,-8.0561,-8.0637,-8.0678,-8.0747,-8.0813,-8.0901,-8.0943,-8.1045,-8.1101,-8.1179,-8.1185,-8.1107,-8.1372,-8.1267,-8.1383,-8.1383,-8.144,-8.1436,-8.1775,-8.1478,-8.1478,-8.1477,-8.1476,0,-8.0345,-8.049,-8.0514,-8.0614,-8.0774,-8.0774,-8.0931,-8.0965,-8.1026,-8.113,-8.1097,-8.1195,-8.1197,-8.1297,-8.1302,-8.1454,-8.148,-8.1491,-8.149,-8.1493,-8.1492,-8.1529,-8.1513,-8.1486,-8.1484,-8.1482,-8.1481,0,-8.059,-8.0612,-8.0787,-8.0859,-8.088,-8.0995,-8.1055,-8.1149,-8.117,-8.1303,-8.1333,-8.1366,-8.1481,-8.1495,-8.1629,-8.1632,-8.1815,-8.1799,-8.1791,-8.1788,-8.1903,-8.1891,-8.2276,-8.2326,-8.1998,-8.2001,-8.2004,0,-8.0758,-8.0868,-8.0953,-8.1021,-8.1067,-8.1178,-8.1246,-8.1249,-8.132,-8.1413,-8.1496,-8.1608,-8.1698,-8.1884,-8.1917,-8.2019,-8.2003,-8.2131,-8.2018,-8.2018,-8.2004,-8.1997,-8.2007,-8.2153,-8.2156,-8.2159,-8.2162,0,-8.1054,-8.1059,-8.116,-8.1264,-8.1347,-8.1429,-8.1505,-8.1563,-8.1575,-8.1657,-8.1775,-8.1845,-8.1982,-8.2093,-8.2193,-8.2232,-8.2199,-8.2197,-8.2229,-8.2233,-8.2224,-8.2229,-8.1849,-8.2188,-8.2185,-8.2183,-8.2182,-8.2181,-8.1264,-8.136,-8.1434,-8.1547,-8.1605,-8.1678,-8.177,-8.1803,-8.1903,-8.2016,-8.2011,-8.2141,-8.221,-8.2342,-8.2388,-8.2487,-8.2445,-8.2491,-8.2503,-8.2514,-8.2525,-8.2209,-8.2506,-8.2505,-8.2504,-8.2504,-8.2503,0,-8.1557,-8.1603,-8.1707,-8.1816,-8.1904,-8.1867,-8.195,-8.2025,-8.2141,-8.221,-8.2299,-8.2434,-8.2541,-8.2584,-8.2688,-8.2759,-8.2747,-8.2787,-8.2781,-8.279,-8.2558,-8.252,-8.2795,-8.2795,-8.2795,-8.2795,-8.2795,-8.2795,-8.172,-8.188,-8.1894,-8.2081,-8.2124,-8.2253,-8.2303,-8.2369,-8.2424,-8.2577,-8.2667,-8.2694,-8.2752,-8.286,-8.2956,-8.2965,-8.3004,-8.3051,-8.3053,-8.2836,-8.2806,-8.2778,-8.2742,-8.3059,-8.306,-8.3276,-8.3278,-8.328]}]]